Weather in Novyye Bateki

Russia / Smolensk Oblast     54°47′14″N   31°50′48″E
temp.,
°C
wind,
m/s
gust,
m/s
humid.,
%
clouds,
%
prec.,
mm/h
press.,
hPa
HPBL,
m
20 april, tue
tue2000:00+7e5887100 0.3 1020816
03:00+5ene3890100 0.3 1019374
06:00+5ene5892100 0.1 1018791
09:00+4ene5896100 0.5 1018612
12:00+4ene5896100 0.1 1017569
15:00+4ene5996100 0.1 1016520
18:00+4ne41093100 0.2 1014551
21:00+5ene4989100 0.3 1012563
21 april, wed
wed2100:00+3ne369199 0.0 1011319
03:00+3n3691100 0.1 1009395
06:00+3nnw4694100 0.1 1008425
09:00+4nw4785100 0.1 1007584
12:00+7wnw6771100 0.1 10071120
15:00+9wnw5664100 0.3 10071265
18:00+9w3569100 0.5 1008721
21:00+6sw358582 0.8 100994
22 april, thu
thu2200:00+4sw3787100 0.0 1010122
03:00+3ssw379125 0.0 1011122
06:00+3s379362 0.0 1011129
09:00+8ssw4682100 0.0 1011421
12:00+12s566541 0.3 10111127
15:00+14ssw6759100 2.0 10101689
18:00+13sw46680 1.4 1010854
21:00+8ssw3481100 1.8 101158
23 april, fri
fri2300:00+7se1189100 0.0 101011
03:00+8sse41194100 1.1 1009512
06:00+4w5895100 1.2 1011514
09:00+5wsw468897 1.8 1012628
12:00+7sw5670100 0.3 10131191
15:00+8wsw5658100 0.6 10121357
18:00+7wsw5662100 0.1 1013865
21:00+5sw3675100 0.3 1013110
24 april, sat
sat2400:00+2wsw35815 0.0 1013101
03:00+1wsw23890 0.0 101243
06:000wsw369077 0.0 1012121
09:00+4w46705 0.0 1012798
12:00+6wsw6750100 0.1 10122114
15:00+7wsw684895 0.4 10121894
18:00+6wsw6761100 0.4 10121262
21:00+2sw358086 0.5 101294